Location: Lombard
(41.8800°N, 88.0080°W)
Time: 04:00:57
(UTC-05:00)

CAS-4A - Pass Details

Date: 24 May 2022
Orbit: 523 x 537 km, 43.0° (Epoch: 27 June)

Event Time Altitude Azimuth Distance (km) Brightness Sun altitude
Rises 22:48:56 0° 283° (WNW) 2,653 ? -21.3°
Reaches altitude 10° 22:51:10 10° 282° (WNW) 1,761 ? -21.5°
Enters shadow 22:55:00 73° 227° (SW) 549 ? -21.9°
